Weather History for KFMH - February, 2014

Change the Weather History Date:

Wednesday, February 12, 2014

  Actual Average Record
Temperature  
Mean Temperature 17 °F -  
Max Temperature 29 °F 36 °F 57 °F (1999)
Min Temperature 5 °F 20 °F 5 °F (2014)
Degree Days  
Heating Degree Days 48    
Moisture  
Dew Point 8 °F    
Average Humidity 69    
Maximum Humidity 86    
Minimum Humidity 42    
Precipitation  
Precipitation 0.00 in - - ()
Sea Level Pressure  
Sea Level Pressure 30.47 in    
Wind  
Wind Speed 7 mph (NNW)    
Max Wind Speed 20 mph    
Max Gust Speed 17 mph    
Visibility 10 miles    
Events Rain , Snow    
Averages and records for this station are not official NWS values.
T = Trace of Precipitation, MM = Missing Value Source: NWS Daily Summary

Daily Weather History Graph

Daily Weather History Graph

Search for Another Location

Airport or City:

Trip Planner

Search our weather history database for the weather conditions in past years. The results will help you decide how hot, cold, wet, or windy it might be!

Date:

Astronomy

Feb. 12, 2014 Rise Set
Actual Time 6:41 AM EST 5:11 PM EST
Civil Twilight 6:12 AM EST 5:40 PM EST
Nautical Twilight 5:40 AM EST 6:13 PM EST
Astronomical Twilight 5:07 AM EST 6:45 PM EST
Moon 3:22 PM EST (2/12) 4:57 AM EST (2/12)
Length of Visible Light 11h 27m
Length of Day
10h 30m
Waxing Gibbous, 95% of the Moon is Illuminated
Feb 12
Waxing Gibbous
Feb 14
Full
Feb 22
Last Quarter
Mar 1
New
Mar 8
First Quarter

Hourly Weather History & Observations

Time (EST) Temp. Windchill Dew Point Humidity Pressure Visibility Wind Dir Wind Speed Gust Speed Precip Events Conditions
12:15 AM 12.2 °F 1.7 °F -0.4 °F 57% 30.39 in 10.0 mi NW 6.9 mph - N/A   Clear
12:35 AM 12.2 °F 4.3 °F -0.4 °F 57% 30.39 in 10.0 mi NNW 4.6 mph - N/A   Clear
12:55 AM 12.2 °F 2.9 °F -0.4 °F 57% 30.40 in 10.0 mi NNW 5.8 mph - N/A   Clear
1:15 AM 12.2 °F -0.2 °F -0.4 °F 57% 30.40 in 10.0 mi NNW 9.2 mph - N/A   Clear
1:35 AM 12.2 °F -1.0 °F 1.4 °F 62% 30.41 in 10.0 mi NNW 10.4 mph - N/A   Clear
1:55 AM 12.2 °F -1.0 °F -0.4 °F 57% 30.41 in 10.0 mi NNW 10.4 mph - N/A   Clear
2:15 AM 12.2 °F -0.2 °F -0.4 °F 57% 30.41 in 10.0 mi NW 9.2 mph - N/A   Clear
2:35 AM 12.2 °F -1.8 °F -0.4 °F 57% 30.41 in 10.0 mi NW 11.5 mph 17.3 mph N/A   Clear
2:55 AM 10.4 °F -3.3 °F -2.2 °F 57% 30.42 in 10.0 mi NNW 10.4 mph - N/A   Clear
3:15 AM 10.4 °F -1.5 °F -2.2 °F 57% 30.43 in 10.0 mi NW 8.1 mph 15.0 mph N/A   Partly Cloudy
3:35 AM 10.4 °F -2.4 °F -2.2 °F 57% 30.43 in 10.0 mi NNW 9.2 mph 15.0 mph N/A   Mostly Cloudy
3:55 AM 10.4 °F -3.3 °F -2.2 °F 57% 30.43 in 10.0 mi NW 10.4 mph 16.1 mph N/A   Mostly Cloudy
4:15 AM 8.6 °F -2.6 °F -2.2 °F 62% 30.44 in 10.0 mi NW 6.9 mph - N/A   Overcast
4:35 AM 8.6 °F -2.6 °F -2.2 °F 62% 30.44 in 10.0 mi NW 6.9 mph - N/A   Overcast
4:55 AM 6.8 °F -4.8 °F -2.2 °F 67% 30.45 in 10.0 mi NW 6.9 mph 12.7 mph N/A   Overcast
5:15 AM 6.8 °F -3.5 °F -2.2 °F 67% 30.46 in 10.0 mi NW 5.8 mph - N/A   Overcast
5:35 AM 6.8 °F -4.8 °F -2.2 °F 67% 30.46 in 10.0 mi NW 6.9 mph - N/A Snow Light Snow
5:55 AM 6.8 °F -4.8 °F -2.2 °F 67% 30.48 in 10.0 mi WNW 6.9 mph - N/A Snow Light Snow
6:15 AM 5.0 °F -8.1 °F -4.0 °F 66% 30.50 in 10.0 mi WNW 8.1 mph - N/A Snow Light Snow
6:35 AM 6.8 °F -5.9 °F -2.2 °F 67% 30.50 in 10.0 mi NW 8.1 mph - N/A Snow Light Snow
6:55 AM 6.8 °F -5.9 °F -2.2 °F 67% 30.50 in 10.0 mi NNW 8.1 mph - N/A   Overcast
7:15 AM 8.6 °F -3.7 °F -2.2 °F 62% 30.50 in 10.0 mi NW 8.1 mph - N/A Snow Light Snow
7:35 AM 8.6 °F -3.7 °F -2.2 °F 62% 30.51 in 10.0 mi NW 8.1 mph - N/A Snow Light Snow
7:55 AM 8.6 °F -4.7 °F -2.2 °F 62% 30.52 in 10.0 mi NW 9.2 mph - N/A   Mostly Cloudy
8:10 AM 6.8 °F -6.9 °F -2.2 °F 67% 30.52 in 10.0 mi NNW 9.2 mph - N/A   Scattered Clouds
8:15 AM 10.4 °F -0.4 °F -0.4 °F 62% 30.51 in 10.0 mi NNW 6.9 mph - N/A   Mostly Cloudy
8:35 AM 12.2 °F 6.1 °F 1.4 °F 62% 30.51 in 10.0 mi Variable 3.5 mph - N/A   Scattered Clouds
8:55 AM 15.8 °F 7.2 °F 5.0 °F 62% 30.50 in 10.0 mi NNW 5.8 mph - N/A Snow Light Snow
8:56 AM 15.8 °F 4.2 °F 5.0 °F 62% 30.50 in 10.0 mi NNW 9.2 mph - N/A   Scattered Clouds
9:15 AM 17.6 °F 10.7 °F 6.8 °F 63% 30.52 in 10.0 mi West 4.6 mph - N/A   Overcast
9:35 AM 19.4 °F 12.8 °F 8.6 °F 63% 30.52 in 10.0 mi NW 4.6 mph - N/A   Overcast
9:55 AM 19.4 °F 9.5 °F 8.6 °F 63% 30.53 in 10.0 mi WNW 8.1 mph - N/A Snow Light Snow
10:15 AM 21.2 °F 13.6 °F 10.4 °F 63% 30.53 in 10.0 mi NNW 5.8 mph - N/A   Overcast
10:35 AM 21.2 °F 13.6 °F 10.4 °F 63% 30.53 in 10.0 mi NNW 5.8 mph - N/A   Overcast
10:55 AM 23.0 °F 13.1 °F 14.0 °F 68% 30.53 in 10.0 mi North 9.2 mph - N/A   Overcast
11:15 AM 24.8 °F 16.9 °F 15.8 °F 69% 30.51 in 10.0 mi North 6.9 mph - N/A   Overcast
11:35 AM 23.0 °F 13.9 °F 15.8 °F 74% 30.50 in 9.0 mi North 8.1 mph - N/A Rain Light Freezing Rain
11:55 AM 24.8 °F 17.9 °F 15.8 °F 69% 30.50 in 10.0 mi NE 5.8 mph - N/A Rain Light Freezing Rain
12:15 PM 24.8 °F 16.9 °F 15.8 °F 69% 30.50 in 10.0 mi NNE 6.9 mph 13.8 mph N/A   Mostly Cloudy
12:35 PM 24.8 °F 19.1 °F 15.8 °F 69% 30.51 in 10.0 mi North 4.6 mph 16.1 mph N/A   Mostly Cloudy
12:55 PM 24.8 °F 16.1 °F 15.8 °F 69% 30.51 in 10.0 mi Variable 8.1 mph - N/A   Mostly Cloudy
1:15 PM 24.8 °F 17.9 °F 15.8 °F 69% 30.51 in 10.0 mi North 5.8 mph - N/A   Mostly Cloudy
1:35 PM 24.8 °F 16.1 °F 15.8 °F 69% 30.51 in 10.0 mi ENE 8.1 mph - N/A   Scattered Clouds
1:55 PM 24.8 °F 17.9 °F 15.8 °F 69% 30.52 in 10.0 mi ENE 5.8 mph - N/A   Scattered Clouds
2:15 PM 24.8 °F 16.9 °F 15.8 °F 69% 30.51 in 10.0 mi NE 6.9 mph - N/A   Scattered Clouds
2:35 PM 24.8 °F 19.1 °F 15.8 °F 69% 30.51 in 10.0 mi NNE 4.6 mph - N/A   Scattered Clouds
2:55 PM 24.8 °F - 14.0 °F 64% 30.51 in 10.0 mi Calm Calm - N/A   Scattered Clouds
3:15 PM 24.8 °F 17.9 °F 15.8 °F 69% 30.50 in 10.0 mi ENE 5.8 mph - N/A   Clear
3:35 PM 24.8 °F 14.6 °F 15.8 °F 69% 30.49 in 10.0 mi ENE 10.4 mph - N/A   Clear
3:55 PM 24.8 °F 15.3 °F 15.8 °F 69% 30.47 in 10.0 mi ENE 9.2 mph - N/A   Clear
4:15 PM 23.0 °F 12.4 °F 15.8 °F 74% 30.46 in 10.0 mi NE 10.4 mph - N/A   Clear
4:35 PM 23.0 °F 17.0 °F 15.8 °F 74% 30.47 in 10.0 mi NE 4.6 mph - N/A   Clear
4:55 PM 23.0 °F 18.4 °F 15.8 °F 74% 30.48 in 10.0 mi NE 3.5 mph - N/A   Clear
5:15 PM 23.0 °F - 15.8 °F 74% 30.48 in 10.0 mi Calm Calm - N/A   Clear
5:35 PM 21.2 °F - 14.0 °F 74% 30.49 in 10.0 mi Calm Calm - N/A   Scattered Clouds
5:55 PM 19.4 °F 14.3 °F 14.0 °F 80% 30.49 in 10.0 mi NW 3.5 mph - N/A   Mostly Cloudy
6:15 PM 19.4 °F - 14.0 °F 80% 30.48 in 10.0 mi Calm Calm - N/A   Scattered Clouds
6:35 PM 19.4 °F - 14.0 °F 80% 30.49 in 10.0 mi Calm Calm - N/A   Scattered Clouds
6:55 PM 15.8 °F 10.2 °F 12.2 °F 86% 30.49 in 10.0 mi WNW 3.5 mph - N/A   Scattered Clouds
7:15 PM 17.6 °F 12.3 °F 14.0 °F 86% 30.46 in 10.0 mi North 3.5 mph - N/A   Scattered Clouds
7:35 PM 17.6 °F - 14.0 °F 86% 30.46 in 10.0 mi Calm Calm - N/A   Scattered Clouds
7:55 PM 17.6 °F - 12.2 °F 79% 30.45 in 10.0 mi Calm Calm - N/A   Scattered Clouds
8:15 PM 15.8 °F - 12.2 °F 86% 30.46 in 10.0 mi Calm Calm - N/A   Overcast
8:35 PM 15.8 °F - 12.2 °F 86% 30.46 in 10.0 mi Calm Calm - N/A   Overcast
8:55 PM 15.8 °F - 12.2 °F 86% 30.45 in 10.0 mi Calm Calm - N/A   Overcast
9:15 PM 15.8 °F - 12.2 °F 86% 30.44 in 10.0 mi Calm Calm - N/A   Overcast
9:35 PM 15.8 °F - 12.2 °F 86% 30.45 in 10.0 mi Calm Calm - N/A   Overcast
9:55 PM 17.6 °F - 14.0 °F 86% 30.43 in 10.0 mi Calm Calm - N/A   Overcast
10:15 PM 15.8 °F - 12.2 °F 86% 30.43 in 10.0 mi Calm Calm - N/A   Overcast
10:35 PM 15.8 °F - 12.2 °F 86% 30.44 in 10.0 mi Calm Calm - N/A   Overcast
10:55 PM 17.6 °F - 14.0 °F 86% 30.43 in 10.0 mi Calm Calm - N/A   Overcast
11:15 PM 19.4 °F - 14.0 °F 80% 30.43 in 10.0 mi Calm Calm - N/A   Overcast
11:35 PM 21.2 °F 16.4 °F 15.8 °F 80% 30.42 in 10.0 mi NE 3.5 mph - N/A   Overcast
11:55 PM 21.2 °F 13.6 °F 15.8 °F 80% 30.40 in 10.0 mi NE 5.8 mph - N/A   Overcast